Location: ?????????
(54.7630°N, 39.4991°E)
Time: 19:21:40
(UTC+00:00)

Cosmos 2346 Rocket - Pass Details

Date: 14 April 2026
Orbit: 936 x 978 km, 82.9° (Epoch: 19 May)

Event Time Altitude Azimuth Distance (km) Brightness Sun altitude
Rises 19:30:24 0° 348° (NNW) 3,625 8.8 -21.5°
Reaches altitude 10° 19:32:53 10° 350° (N) 2,681 7.8 -21.6°
Maximum altitude 19:39:03 81° 79° (E) 972 4.4 -22.1°
Enters shadow 19:41:08 44° 160° (SSE) 1,294 4.7 -22.2°
